Showing default

HULIANWANG DIGUI-180, 100205

Orbit data source: Space-Track

HULIANWANG DIGUI-180, 100205 is a payload satellite owned by Zhongguo Xingwang (CN) in LEO that was launched on Tue, 04 Aug 2026 UTC launched from the Wenchang Satellite Launch Center (WSC). Payload-class satellites include a variety of spacecraft equipped with specific instruments for various scientific and technological missions. These include communications satellites like Starlink; space stations such as the ISS; scientific satellites like the Hubble; Earth observation satellites from companies like Planet Labs, Umbra, and HawkEye 360; GPS; miniature CubeSats for education and research; and military/defense satellites.

Loading next visibility...
Identifier
100205, 2026-176C
Orbit
LEO
Country
Flag of CNCN / PRC
Related business
Manufacturer
CAST?
Mission
Operational spacecraft
Bus & Motor
XINGWANG C, Unknown motor
Mass
~700 kg wet, ~700 kg dry
Launch date (UTC)
2026-08-04 (2 months ago)
Launch vehicle
Unknown
Launch site
Wenchang Satellite Launch Center (WSC)
Object type
Payload
Rocket body
Debris
Shape & HBR
BOX + 2 PAN, 14.5 m
Radar Cross Section
Large (>1 m²)

Expand to show TLE details & history
Last TLE update: 11 hours ago

TLE from 11 hours ago
0 HULIANWANG DIGUI-180
1 A0205U 26176C   26263.62797044 -.00000086  00000-0  81461-4 0  9996
2 A0205  49.9886 223.6308 0000327  24.6848 335.4040 13.29327456  6312
Epoch: 2026-09-20T15:04Z
TLE epoch observation values (Epoch: 2026-09-20T15:04:16.646Z)
Latitude
0.00004°
Longitude
-1.95795°
Altitude
1,149.582 km
Speed
7.279 km/s
True Right ascension
14h 54m 31s
True Declination
0° 00' 00"
Sunlit
Object was in daylight at epoch
Visualization orbit readout
Latitude
Unknown
Longitude
Unknown
Altitude
Unknown
Speed
Unknown
Apparent Right ascension
Unknown
Apparent Declination
Unknown
Sunlit
N/A
Visualization observer readout
Local Sidereal Time
19:11:04
Azimuth
Unknown
Elevation
Unknown
Doppler factor
Unknown
Orbital elements
Apogee altitude
1,150.254 km
Perigee altitude
1,149.762 km
Semi-major axis
7,528.145 km
Eccentricity
0.00003
Inclination
49.9886°
RAAN
223.6308°
Arg. of periapsis
24.6848°
True anomaly
335.40244°
Mean anomaly
335.404°
Eccentric anomaly
335.40322°
Mean motion
3.32285 °/min
Orbital period
108.34 mins
BSTAR
0.000081461
Loading maneuver chart data...
Computing Atmospheric mass density...
Loading historical data...
Loading historical data...
Loading historical data...
Loading historical data...
Loading historical data...
Loading historical data...
Loading historical data...

Documentation

Showing up to 5 results
|